DW9493 Weather Reports


Display with metric or nautical units.
time (UTC)temp
F
wind
direction
speed
MPH
gust
MPH
rain 1hr
in
rain 24hr
in
rain mn
in
humidity
%
barometer
mb
20260831141335 61 316 0.0 0.0 0.00 0.06 0.00 58 1028.6
20260831140334 59 315 0.0 0.0 0.00 0.06 0.00 65 1028.5
20260831135332 58 316 0.0 0.0 0.00 0.06 0.00 66 1028.3
20260831134809 57 316 0.0 0.0 0.00 0.06 0.00 65 1028.1
20260831133326 56 316 0.0 0.0 0.00 0.06 0.00 62 1028.0
20260831132806 55 315 0.0 0.0 0.00 0.06 0.00 63 1028.0
20260831131323 55 315 0.0 1.0 0.00 0.06 0.00 62 1027.8
20260831130324 55 316 0.0 2.0 0.00 0.06 0.00 65 1027.5
20260831125756 54 315 0.0 1.0 0.00 0.06 0.00 68 1027.5
20260831124319 54 315 0.0 0.0 0.00 0.06 0.00 69 1027.4
20260831123803 53 315 0.0 1.0 0.00 0.06 0.00 69 1027.4
20260831122320 53 315 0.0 1.0 0.00 0.06 0.00 66 1027.3
20260831121321 54 315 0.0 1.0 0.00 0.06 0.00 68 1027.3
20260831120806 54 315 0.0 1.0 0.00 0.06 0.00 67 1027.1
20260831115320 54 315 0.0 1.0 0.00 0.06 0.00 65 1027.0
20260831114306 55 314 0.0 0.0 0.00 0.06 0.00 63 1026.9
20260831113737 55 315 0.0 1.0 0.00 0.06 0.00 62 1027.0
20260831112301 55 314 0.0 1.0 0.00 0.06 0.00 63 1026.9
20260831111259 55 314 1.0 5.0 0.00 0.06 0.00 62 1026.9
20260831110258 55 257 1.0 3.0 0.00 0.06 0.00 65 1026.8
20260831105258 55 326 0.0 2.0 0.00 0.06 0.00 64 1026.8
20260831104257 55 326 0.0 2.0 0.00 0.06 0.00 64 1026.8
20260831103228 55 229 0.0 3.0 0.00 0.06 0.00 62 1026.6
20260831102226 55 205 2.0 5.0 0.00 0.06 0.00 65 1026.5
20260831101224 54 236 0.0 2.0 0.00 0.06 0.00 66 1026.4
20260831100222 53 317 0.0 2.0 0.00 0.06 0.00 67 1026.6
20260831095222 53 252 0.0 1.0 0.00 0.06 0.00 69 1026.5
20260831094658 54 315 0.0 2.0 0.00 0.06 0.00 69 1026.3
20260831093218 55 266 0.0 1.0 0.00 0.06 0.00 64 1026.4
20260831092218 54 245 0.0 1.0 0.00 0.06 0.00 67 1026.3
20260831091214 54 308 0.0 1.0 0.00 0.06 0.00 68 1026.3
20260831090215 54 304 0.0 1.0 0.00 0.06 0.00 68 1026.1
20260831085210 53 305 0.0 1.0 0.00 0.06 0.00 72 1026.1
20260831084204 54 304 0.0 1.0 0.00 0.06 0.00 71 1026.3
20260831083157 55 305 0.0 2.0 0.00 0.06 0.00 69 1026.3
20260831082559 55 203 0.0 0.0 0.00 0.06 0.00 67 1026.5
20260831082229 55 203 0.0 1.0 0.00 0.06 0.00 67 1026.4
20260831080153 55 203 0.0 1.0 0.00 0.06 0.00 64 1026.4
20260831075151 56 203 0.0 1.0 0.00 0.06 0.00 63 1026.6
20260831074149 56 224 0.0 1.0 0.00 0.06 0.00 63 1026.6
20260831073150 56 330 0.0 1.0 0.00 0.06 0.00 63 1026.9
20260831072143 57 330 0.0 1.0 0.00 0.06 0.00 62 1026.9
20260831071143 58 256 1.0 3.0 0.00 0.06 0.00 58 1027.0
20260831070625 58 226 0.0 1.0 0.00 0.06 0.00 57 1027.0
20260831065142 58 225 0.0 2.0 0.00 0.06 0.00 57 1027.1
20260831064139 58 322 0.0 1.0 0.00 0.06 0.00 59 1026.9
20260831064057 58 352 0.0 1.0 0.00 0.06 0.00 59 1027.0
20260831062611 59 357 0.0 1.0 0.00 0.06 0.00 56 1027.3
20260831061134 60 53 0.0 0.0 0.00 0.06 0.00 54 1027.4
20260831060606 61 53 0.0 2.0 0.00 0.06 0.00 51 1027.4
20260831055108 61 341 2.0 5.0 0.00 0.06 0.06 52 1027.6
20260831054108 61 249 2.0 6.0 0.00 0.06 0.06 52 1027.6
20260831053104 61 322 0.0 2.0 0.00 0.06 0.06 54 1027.9
20260831052102 62 253 1.0 3.0 0.00 0.06 0.06 51 1027.9
20260831051100 63 255 1.0 3.0 0.00 0.06 0.06 49 1028.0
20260831050057 63 235 3.0 8.0 0.00 0.06 0.06 47 1028.0
20260831045532 63 246 3.0 5.0 0.00 0.06 0.06 49 1028.5
20260831044056 63 267 3.0 7.0 0.00 0.06 0.06 49 1028.6
20260831043056 60 253 2.0 9.0 0.00 0.06 0.06 54 1028.6
20260831042057 59 317 1.0 4.0 0.00 0.06 0.06 63 1028.4
20260831041534 58 341 0.0 1.0 0.00 0.06 0.06 65 1028.1
20260831040053 58 248 0.0 2.0 0.00 0.06 0.06 65 1027.9
20260831035046 58 314 0.0 4.0 0.00 0.06 0.06 65 1027.6
20260831034529 58 103 0.0 0.0 0.00 0.06 0.06 64 1027.5
20260831033044 58 103 0.0 0.0 0.00 0.06 0.06 63 1027.4
20260831032043 58 103 0.0 2.0 0.00 0.06 0.06 62 1027.5
20260831031042 59 321 0.0 2.0 0.00 0.06 0.06 60 1027.3
20260831030042 57 269 0.0 2.0 0.00 0.06 0.06 63 1027.3
20260831025041 57 325 0.0 2.0 0.00 0.06 0.06 66 1027.1
20260831024041 56 328 0.0 1.0 0.00 0.06 0.06 68 1026.9
20260831023041 57 328 0.0 2.0 0.00 0.06 0.06 69 1027.0
20260831022041 58 179 0.0 2.0 0.00 0.06 0.06 66 1026.9
20260831021015 59 201 0.0 1.0 0.00 0.06 0.06 64 1026.9
20260831020013 59 198 0.0 1.0 0.00 0.06 0.06 63 1026.8
20260831015005 59 245 0.0 1.0 0.00 0.06 0.06 63 1026.8
20260831014005 60 315 0.0 2.0 0.00 0.06 0.06 63 1026.4
20260831013004 61 210 0.0 0.0 0.00 0.06 0.06 61 1026.4
20260831012004 62 210 0.0 1.0 0.00 0.06 0.06 60 1026.4
20260831011003 64 309 0.0 1.0 0.00 0.06 0.06 61 1026.4
20260831005946 65 218 0.0 1.0 0.00 0.06 0.06 58 1026.4
20260831004946 66 218 0.0 2.0 0.00 0.06 0.06 57 1026.4
20260831003948 67 160 0.0 1.0 0.00 0.06 0.06 56 1026.3
20260831002944 67 107 0.0 3.0 0.00 0.06 0.06 52 1026.3
20260831001940 68 126 0.0 2.0 0.00 0.06 0.06 51 1026.3
20260831000941 68 132 1.0 6.0 0.00 0.06 0.06 50 1026.3
20260830235939 68 93 1.0 4.0 0.00 0.06 0.06 54 1026.1
20260830234938 67 160 0.0 2.0 0.00 0.06 0.06 54 1026.4
20260830233940 67 205 1.0 4.0 0.00 0.06 0.06 57 1026.3
20260830232933 67 118 0.0 2.0 0.00 0.06 0.06 58 1026.3
20260830231933 66 85 1.0 4.0 0.00 0.06 0.06 58 1026.3
20260830230934 65 98 0.0 5.0 0.00 0.06 0.06 59 1026.3
20260830230851 65 109 1.0 3.0 0.00 0.06 0.06 61 1026.1
20260830224931 66 91 1.0 5.0 0.00 0.06 0.06 60 1026.1
20260830223925 66 99 2.0 5.0 0.00 0.06 0.06 59 1026.3
20260830222923 67 142 1.0 5.0 0.00 0.06 0.06 59 1026.3
20260830221922 67 204 5.0 9.0 0.00 0.06 0.06 50 1026.4
20260830220923 67 258 5.0 9.0 0.00 0.06 0.06 48 1026.3
20260830220350 64 222 3.0 7.0 0.01 0.06 0.06 57 1026.5
20260830214918 62 215 3.0 6.0 0.02 0.06 0.06 61 1026.6
20260830213903 61 245 4.0 11.0 0.03 0.06 0.06 67 1026.6
20260830212834 60 305 4.0 11.0 0.05 0.06 0.06 69 1026.9
20260830211834 58 308 4.0 11.0 0.06 0.07 0.06 71 1027.3
20260830211312 57 277 3.0 14.0 0.06 0.07 0.06 74 1027.5
20260830210300 58 314 6.0 15.0 0.05 0.06 0.06 72 1027.6
20260830205737 57 270 4.0 13.0 0.04 0.05 0.04 72 1027.1
20260830203826 57 301 4.0 31.0 0.03 0.04 0.03 74 1027.0
20260830203309 60 262 12.0 34.0 0.01 0.02 0.02 64 1026.9
20260830201820 67 327 10.0 31.0 0.00 0.01 0.00 49 1026.9
20260830200820 68 312 7.0 13.0 0.00 0.01 0.00 54 1026.0
20260830195820 70 280 5.0 15.0 0.00 0.01 0.00 49 1025.8
20260830194820 73 314 0.0 4.0 0.00 0.01 0.00 42 1025.6
20260830193819 74 131 0.0 4.0 0.00 0.01 0.00 37 1024.9
20260830193302 74 28 1.0 5.0 0.00 0.01 0.00 39 1024.6
20260830191818 74 27 1.0 5.0 0.00 0.01 0.00 39 1024.6
20260830191303 73 44 2.0 8.0 0.00 0.01 0.00 41 1024.6
20260830185819 73 85 2.0 8.0 0.00 0.01 0.00 43 1024.9
20260830184817 72 29 2.0 6.0 0.00 0.01 0.00 46 1025.0
20260830183811 71 32 1.0 6.0 0.00 0.01 0.00 47 1025.2
20260830182811 71 72 1.0 5.0 0.00 0.01 0.00 44 1025.2
20260830181813 72 129 1.0 7.0 0.00 0.01 0.00 43 1025.4
20260830181728 72 27 1.0 5.0 0.00 0.01 0.00 44 1025.4
20260830175812 73 83 2.0 8.0 0.00 0.01 0.00 42 1025.5
20260830174809 73 56 2.0 6.0 0.00 0.01 0.00 41 1025.6
20260830173808 74 109 2.0 9.0 0.00 0.01 0.00 40 1025.6
20260830172807 74 33 3.0 8.0 0.00 0.01 0.00 41 1025.8
20260830171806 72 98 1.0 5.0 0.00 0.01 0.00 43 1026.0
20260830171241 72 40 1.0 8.0 0.00 0.01 0.00 42 1026.0
20260830165804 71 76 2.0 5.0 0.00 0.01 0.00 42 1026.3
20260830165241 71 13 3.0 7.0 0.00 0.01 0.00 44 1026.3
20260830164236 71 113 2.0 8.0 0.00 0.01 0.00 44 1026.3
20260830162756 70 128 2.0 7.0 0.00 0.01 0.00 47 1026.1
20260830161754 70 131 0.0 2.0 0.00 0.01 0.00 45 1026.3
20260830160754 69 103 1.0 7.0 0.00 0.01 0.00 47 1026.3
20260830155753 67 322 4.0 7.0 0.00 0.01 0.00 48 1026.5
20260830154746 66 319 3.0 7.0 0.00 0.01 0.00 50 1026.4
20260830153744 65 326 2.0 9.0 0.00 0.01 0.00 51 1026.4
20260830152744 64 326 2.0 6.0 0.00 0.01 0.00 55 1026.5
20260830151731 62 312 4.0 9.0 0.00 0.01 0.00 57 1026.4
20260830151214 62 326 3.0 8.0 0.00 0.01 0.00 57 1026.6
20260830145727 61 300 3.0 8.0 0.00 0.01 0.00 60 1026.3
20260830144728 61 321 0.0 3.0 0.00 0.01 0.00 59 1026.3
20260830144209 60 330 0.0 0.0 0.00 0.01 0.00 60 1026.1
20260830142728 60 330 0.0 1.0 0.00 0.01 0.00 62 1025.9
20260830141716 59 328 1.0 4.0 0.00 0.01 0.00 61 1026.0